[[{"header":{"parameterUnit":"m.s-1","parameterCategory":1,"la1":30.2991,"la2":30.254,"lo1":-89.0895,"lo2":-89.0444,"dy":0.0017,"dx":0.0017,"nx":28,"ny":28,"refTime":"2024-09-29T21:00:00:Z","depth":0,"parameterNumber":2,"parameterNumberName":"U-component_of_WINDS"},"data":[0,0,0,0,0,0,0,0,0,0,0,0,0,0,0,0,0,0,0,0,0,0,0,0,0,0,0,0,0,0,0,0,0,0,0,0,0,0,0,0,0,0,0,0,0,0,0,0,0,0,0,0,0,0,0,0,0,0,1.0592,1.0592,0,1.0674,1.0675,1.0676,1.0723,1.0724,1.0724,1.0724,1.0812,1.0814,1.0816,0,0,0,0,0,0,0,0,0,0,0,0,0,1.0479,1.048,1.0591,1.0592,1.0593,1.0674,1.0675,1.0676,1.0723,1.0724,1.0724,1.0724,1.0811,1.0814,1.0816,0,0,0,0,0,0,0,0,0,0,0,0,0,1.0541,1.0481,1.0591,1.0627,1.0631,1.0674,1.0675,1.0677,1.0723,1.0724,1.0724,1.0724,1.081,1.0814,1.0817,1.0832,0,0,1.0827,1.0828,0,0,0,0,0,0,0,0,1.0537,1.0545,1.062,1.0624,1.0629,1.0689,1.0668,1.0729,1.0723,1.0688,1.0724,1.0724,1.0771,1.0778,1.0793,1.0836,1.084,1.0827,1.0829,1.0831,1.0832,0,0,0,0,0,0,0,1.0533,1.0542,1.0624,1.0621,1.0627,1.064,1.0649,1.068,1.0727,1.0691,1.0695,1.0704,1.0773,1.0789,1.0795,1.0841,1.0827,1.083,1.0832,1.0833,1.0904,1.0904,0,0,0,0,0,0,1.0523,1.0538,1.0622,1.0627,1.0583,1.0642,1.0652,1.0669,1.0727,1.0736,1.0704,1.0706,1.0784,1.0791,1.0798,1.0821,1.0831,1.0834,1.0836,1.0904,1.0904,1.0904,0,0,0,0,0,0,1.052,1.053,1.0618,1.0583,1.0596,1.0643,1.0662,1.0671,1.0687,1.0736,1.0746,1.0711,1.0784,1.0794,1.0824,1.0825,1.0835,1.0838,1.0904,1.0904,1.0904,1.0866,0,0,0,0,0,0,1.0516,1.0528,1.0534,1.0583,1.0597,1.0641,1.0663,1.0672,1.0692,1.0696,1.0746,1.0754,1.0785,1.0818,1.0827,1.083,1.0841,1.0904,1.0904,1.0904,1.0868,1.0865,1.0862,0,0,0,0,0,1.0512,1.052,1.0534,1.0543,1.0605,1.0641,1.0649,1.0683,1.0692,1.0698,1.073,1.0753,1.0823,1.0821,1.0831,1.0835,1.0904,1.0904,1.0904,1.0869,1.0865,1.0863,0,0,0,0,0,0,1.047,1.0527,1.0543,1.0566,1.0598,1.0649,1.0658,1.0678,1.0709,1.0712,1.0754,1.0765,1.0791,1.0816,1.0813,1.0854,1.0866,1.0868,1.0836,1.0834,1.0831,1.0825,1.0843,0,0,0,0,0,1.0463,1.0487,1.0536,1.0552,1.0567,1.0609,1.0627,1.065,1.0685,1.0699,1.0734,1.0768,1.0798,1.0817,1.0848,1.0871,1.0884,1.0879,1.0877,1.0874,1.0875,1.0891,1.089,1.0903,1.0903,1.0903,0,0,1.045,1.0484,1.0496,1.0545,1.0572,1.0597,1.0621,1.0645,1.0664,1.0704,1.0734,1.076,1.0802,1.0829,1.0843,1.085,1.0875,1.0874,1.0872,1.0874,1.0891,1.089,1.0889,1.0903,1.0903,1.0903,0,0,1.0439,1.0466,1.0483,1.051,1.0551,1.058,1.0584,1.0631,1.065,1.0681,1.0711,1.0735,1.0786,1.0815,1.0836,1.0836,1.0858,1.0845,1.0832,1.0847,1.0846,1.0845,1.0847,1.0846,1.0846,1.0846,1.0846,0,1.0417,1.0454,1.049,1.0513,1.0534,1.057,1.0588,1.0613,1.0663,1.0677,1.0685,1.075,1.078,1.0815,1.0815,1.0831,1.0838,1.084,1.0843,1.0843,1.0843,1.0844,1.0845,1.0844,1.0844,1.0845,1.0845,0,1.0426,1.0452,1.0461,1.0507,1.0529,1.055,1.059,1.0608,1.063,1.0658,1.069,1.0728,1.0767,1.0777,1.0799,1.0816,1.082,1.0835,1.0848,1.0839,1.0841,1.0842,1.0842,1.0842,1.0843,1.0843,0,0,1.039,1.0456,1.0459,1.048,1.0529,1.055,1.0573,1.0611,1.0626,1.066,1.0681,1.0724,1.0738,1.0762,1.0788,1.0801,1.0801,1.0815,1.0817,1.0812,1.0823,1.0811,1.0811,1.0815,1.0816,1.0816,1.082,0,1.0386,1.0428,1.0461,1.0492,1.0516,1.0552,1.0572,1.0605,1.0632,1.0658,1.0689,1.0719,1.0735,1.075,1.0764,1.0797,1.0804,1.0798,1.0837,1.0838,1.0826,1.0813,1.0801,1.0802,1.0821,1.0821,1.0821,0,1.0386,1.0418,1.045,1.0497,1.0509,1.0527,1.0565,1.0589,1.0627,1.0646,1.0673,1.07,1.0728,1.0739,1.0779,1.0774,1.0793,1.0812,1.0813,1.0818,1.0829,1.0818,1.0803,1.0804,1.0823,1.0822,1.0822,0,1.0358,1.0408,1.0434,1.0452,1.0507,1.0519,1.0543,1.0582,1.0603,1.0636,1.0651,1.0687,1.0708,1.0736,1.0773,1.0777,1.0809,1.0823,1.0827,1.0826,1.0832,1.0832,1.0821,1.0843,1.0843,1.0843,1.0843,0,1.035,1.0369,1.0422,1.0438,1.0461,1.05,1.0522,1.0549,1.0584,1.0607,1.064,1.0661,1.0708,1.0736,1.0765,1.0794,1.0803,1.082,1.0828,1.0817,1.0815,1.083,1.0831,1.0843,1.0843,1.0843,1.0843,0,1.0321,1.0358,1.0389,1.0439,1.0452,1.0467,1.0511,1.0528,1.0558,1.0587,1.0596,1.0642,1.0676,1.0716,1.0763,1.0783,1.081,1.0821,1.0797,1.0801,1.0803,1.0803,1.0802,1.0804,1.0824,1.0824,1.0824,0,1.0314,1.0329,1.0381,1.0399,1.0421,1.0449,1.0471,1.051,1.0532,1.0578,1.059,1.0627,1.0658,1.0712,1.075,1.0787,1.08,1.0797,1.0805,1.0795,1.0801,1.0799,1.0802,1.0795,1.0794,1.0794,1.0794,0,1.0298,1.0315,1.0344,1.038,1.0405,1.0435,1.0467,1.048,1.0526,1.0549,1.0584,1.0608,1.0656,1.0693,1.0735,1.0761,1.0786,1.0791,1.0794,1.0783,1.0769,1.0778,1.0791,1.079,1.0791,1.0791,1.0791,1.0791,1.028,1.0296,1.0335,1.0367,1.0395,1.0424,1.0444,1.0475,1.0505,1.0547,1.0569,1.0604,1.0644,1.0703,1.0728,1.0757,1.0765,1.0769,1.0771,1.0771,1.0769,1.0764,1.0765,1.0765,1.0765,1.0765,1.0766,0,1.0266,1.0293,1.0322,1.0366,1.0391,1.0411,1.0448,1.0468,1.0498,1.0533,1.0563,1.0604,1.064,1.0682,1.0721,1.0736,1.0748,1.0745,1.0744,1.075,1.0759,1.0753,1.0734,1.0734,1.0734,1.0734,1.0734,1.0734,1.0262,1.029,1.0312,1.0355,1.0383,1.0416,1.0436,1.0464,1.0492,1.0536,1.0565,1.0592,1.063,1.0672,1.0707,1.0718,1.0731,1.0725,1.074,1.0747,1.0749,1.0752,1.0746,1.0727,1.0727,1.0729,1.0729,1.0729]},{"header":{"parameterUnit":"m.s-1","parameterCategory":1,"la1":30.2991,"la2":30.254,"lo1":-89.0895,"lo2":-89.0444,"dy":0.0017,"dx":0.0017,"nx":28,"ny":28,"refTime":"2024-09-29T21:00:00:Z","depth":0,"parameterNumber":3,"parameterNumberName":"V-component_of_WINDS"},"data":[0,0,0,0,0,0,0,0,0,0,0,0,0,0,0,0,0,0,0,0,0,0,0,0,0,0,0,0,0,0,0,0,0,0,0,0,0,0,0,0,0,0,0,0,0,0,0,0,0,0,0,0,0,0,0,0,0,0,1.9574,1.9575,0,1.964,1.964,1.9641,1.9677,1.9677,1.9677,1.9677,1.9741,1.9743,1.9744,0,0,0,0,0,0,0,0,0,0,0,0,0,1.9476,1.9478,1.9574,1.9575,1.9576,1.9639,1.964,1.9641,1.9677,1.9677,1.9677,1.9677,1.9741,1.9743,1.9744,0,0,0,0,0,0,0,0,0,0,0,0,0,1.9528,1.9478,1.9574,1.9601,1.9604,1.9639,1.964,1.9641,1.9677,1.9677,1.9677,1.9677,1.974,1.9742,1.9745,1.9757,0,0,1.9752,1.9753,0,0,0,0,0,0,0,0,1.9525,1.9531,1.9597,1.96,1.9603,1.965,1.9629,1.968,1.9676,1.9649,1.9677,1.9677,1.9711,1.9715,1.9727,1.976,1.9763,1.9752,1.9754,1.9755,1.9756,0,0,0,0,0,0,0,1.9521,1.9529,1.96,1.9597,1.9601,1.9609,1.9616,1.9639,1.9678,1.9651,1.9654,1.9662,1.9712,1.9725,1.9729,1.9764,1.9752,1.9754,1.9756,1.9757,1.9806,1.9806,0,0,0,0,0,0,1.9514,1.9526,1.9598,1.9602,1.9564,1.961,1.9619,1.9635,1.9678,1.9685,1.9661,1.9663,1.9721,1.9726,1.9731,1.9747,1.9755,1.9757,1.9759,1.9807,1.9806,1.9806,0,0,0,0,0,0,1.9512,1.952,1.9595,1.9565,1.9575,1.9612,1.963,1.9636,1.9649,1.9686,1.9692,1.9667,1.9721,1.9728,1.975,1.975,1.9758,1.976,1.9807,1.9807,1.9806,1.9779,0,0,0,0,0,0,1.9509,1.9519,1.9525,1.9565,1.9576,1.9614,1.963,1.9637,1.9653,1.9656,1.9693,1.9699,1.9722,1.9746,1.9752,1.9753,1.9762,1.9807,1.9807,1.9806,1.978,1.9778,1.9776,0,0,0,0,0,1.9505,1.9515,1.9525,1.9534,1.9585,1.9614,1.9621,1.9647,1.9653,1.9659,1.9682,1.9698,1.9749,1.9748,1.9755,1.9757,1.9807,1.9807,1.9806,1.9781,1.9778,1.9776,0,0,0,0,0,0,1.9475,1.9521,1.9533,1.9556,1.9581,1.962,1.9628,1.9644,1.9667,1.9668,1.9699,1.9707,1.9726,1.9744,1.9742,1.977,1.9779,1.978,1.9758,1.9755,1.9753,1.9749,1.9764,0,0,0,0,0,1.9471,1.9492,1.953,1.9547,1.9559,1.9591,1.9605,1.9623,1.9649,1.966,1.9685,1.9709,1.973,1.9744,1.9766,1.9783,1.979,1.9787,1.9785,1.9783,1.9784,1.9792,1.979,1.9805,1.9805,1.9805,0,0,1.9463,1.949,1.9502,1.9541,1.9563,1.9582,1.96,1.962,1.9634,1.9663,1.9685,1.9703,1.9732,1.9751,1.9761,1.9767,1.9781,1.9783,1.9781,1.9783,1.9791,1.979,1.9789,1.9805,1.9805,1.9805,0,0,1.9458,1.9482,1.9498,1.9518,1.955,1.9571,1.9574,1.9611,1.9624,1.9647,1.9668,1.9684,1.9721,1.974,1.9755,1.9754,1.9769,1.976,1.9749,1.9757,1.9755,1.9755,1.9753,1.9752,1.976,1.976,1.976,0,1.9444,1.9476,1.9503,1.9522,1.9538,1.9564,1.9579,1.9597,1.9634,1.9644,1.965,1.9694,1.9716,1.9739,1.9738,1.9749,1.9753,1.9756,1.9754,1.9753,1.9752,1.9751,1.9751,1.9759,1.9759,1.9759,1.9759,0,1.9456,1.9477,1.9485,1.952,1.9537,1.9553,1.9582,1.9595,1.9611,1.963,1.9651,1.9678,1.9704,1.9711,1.9726,1.9735,1.9737,1.9748,1.9758,1.9749,1.9748,1.9748,1.9757,1.9757,1.9758,1.9758,0,0,1.9436,1.9484,1.9487,1.9502,1.9538,1.9554,1.957,1.9596,1.9606,1.963,1.9643,1.9672,1.9681,1.9698,1.9715,1.9722,1.9717,1.9732,1.9733,1.9727,1.9726,1.9717,1.9717,1.9727,1.9727,1.9727,1.9723,0,1.9436,1.9468,1.9492,1.9514,1.9533,1.9556,1.957,1.9593,1.9611,1.9627,1.9647,1.9667,1.9678,1.9688,1.9695,1.9716,1.9717,1.9717,1.9739,1.9739,1.973,1.9717,1.9708,1.9703,1.9723,1.9723,1.9723,0,1.9441,1.9464,1.9488,1.9519,1.9528,1.954,1.9564,1.9581,1.9605,1.9618,1.9634,1.9652,1.9668,1.9677,1.9698,1.9697,1.9707,1.9718,1.9719,1.9722,1.9731,1.9718,1.9703,1.9702,1.9723,1.9723,1.9723,0,1.9423,1.9459,1.9478,1.949,1.9527,1.9535,1.9551,1.9576,1.9589,1.9609,1.9618,1.964,1.9652,1.9668,1.969,1.9695,1.9709,1.972,1.9719,1.9718,1.9721,1.972,1.9706,1.9728,1.9728,1.9728,1.9728,0,1.9421,1.9434,1.947,1.9481,1.9496,1.9522,1.9536,1.9553,1.9574,1.9588,1.9609,1.9622,1.9651,1.9666,1.9683,1.9697,1.9703,1.9712,1.9716,1.971,1.9709,1.9717,1.9718,1.9728,1.9728,1.9728,1.9728,0,1.9404,1.9428,1.945,1.9483,1.9491,1.95,1.9528,1.9538,1.9556,1.9573,1.9579,1.9607,1.9625,1.9649,1.9675,1.9687,1.9699,1.9706,1.969,1.9693,1.969,1.969,1.968,1.968,1.9702,1.9702,1.9702,0,1.9401,1.9412,1.9445,1.9456,1.9471,1.9488,1.9501,1.9526,1.9539,1.9566,1.9573,1.9593,1.961,1.9638,1.966,1.968,1.9687,1.9682,1.969,1.9683,1.9686,1.9685,1.9685,1.968,1.968,1.968,1.968,0,1.9392,1.9403,1.9422,1.9444,1.9459,1.9477,1.9497,1.9504,1.9532,1.9545,1.9564,1.9578,1.9603,1.9622,1.9644,1.9659,1.9673,1.9677,1.9677,1.9671,1.9661,1.9665,1.9684,1.9677,1.9677,1.9677,1.9678,1.9678,1.9382,1.9391,1.9416,1.9435,1.9452,1.9468,1.948,1.9498,1.9515,1.9538,1.9551,1.9569,1.9591,1.9622,1.9635,1.9649,1.9654,1.9656,1.9656,1.9655,1.9653,1.9659,1.9653,1.9653,1.9653,1.9653,1.9653,0,1.9374,1.939,1.9407,1.9433,1.9447,1.9459,1.948,1.9491,1.9507,1.9526,1.9542,1.9563,1.958,1.9603,1.9622,1.9628,1.9635,1.9632,1.9632,1.9634,1.9647,1.9644,1.9626,1.9626,1.9626,1.9626,1.9626,1.9626,1.9371,1.9387,1.9401,1.9424,1.944,1.9458,1.9469,1.9484,1.9499,1.9521,1.9536,1.955,1.957,1.959,1.9606,1.9612,1.9617,1.9612,1.962,1.9631,1.9634,1.9636,1.9634,1.9613,1.9613,1.9606,1.9606,1.9606]}]]